Location: Mason-Dixon Star Party
(40.0361°N, 76.9958°W)
Time: 06:37:57
(UTC-04:00)

Daily predictions for brighter satellites

Satellite Brightness Start Highest point End
(mag) Time Altitude Azimuth Time Altitude Azimuth Time Altitude Azimuth
Cosmos 1939 Rocket 3.4 20:49:53 10° SE 20:53:51 46° ENE 20:57:48 10° N
Cosmos 1862 Rocket 3.7 20:50:28 10° N 20:54:59 83° W 20:59:27 10° S
Spot 2 Rocket 3.7 20:51:36 10° S 20:56:42 78° WSW 21:01:50 10° NNW
Cosmos 1408 4.3 20:55:12 10° SE 20:57:38 17° E 21:00:05 10° NE
USA 215 4.4 20:52:43 10° E 20:58:32 35° NNE 21:04:20 10° NW
ISS -3.6 20:56:40 10° WSW 20:59:55 77° NW 21:03:10 10° NE
Resurs 01 Rocket 2.5 20:59:34 10° S 21:03:53 52° W 21:08:14 10° NNW
Tiangong 2 1.6 21:02:52 10° W 21:05:59 48° SSW 21:09:02 10° SE
NOSS 3-2 (C) 3.9 21:00:09 10° SW 21:06:06 68° NW 21:12:41 10° NNE
Cosmos 2082 Rocket 4.2 21:01:54 10° NW 21:06:31 26° WSW 21:11:09 10° SSW
Cosmos 1900 4.5 21:01:34 10° NNW 21:06:46 86° ENE 21:11:54 10° SSE
Meteor 2-3 Rocket 3.8 21:05:12 10° S 21:10:55 84° E 21:16:37 10° N
CZ-4B DEB 3.5 21:09:38 10° SE 21:12:13 31° ENE 21:14:52 10° N
Cosmos 2346 Rocket 4.4 21:08:08 10° S 21:14:10 83° E 21:20:15 10° N
Cosmos 1825 3.3 21:11:17 10° SSE 21:14:25 25° E 21:17:33 10° NE
Meteor 1-26 Rocket 4.5 21:09:14 10° NNW 21:14:54 78° W 21:20:39 10° S
Okean 1-7 3.6 21:11:07 10° N 21:15:17 39° ENE 21:19:23 10° SSE
CENTAUR R/B 2.6 21:11:17 10° S 21:16:59 52° ESE 21:23:27 10° NE
Cosmos 2344 4.0 21:13:52 10° S 21:20:47 37° ESE 21:28:03 10° NE
Cosmos 1782 3.5 21:17:20 10° N 21:21:02 35° ENE 21:24:10 13° SE
SPOT 5 4.4 21:17:37 11° ESE 21:21:36 24° ENE 21:25:47 10° NNE
Shenzhou-11 Module 3.5 21:19:24 10° W 21:22:04 27° SSW 21:24:15 13° SSE
Aureole 1 4.4 21:20:42 10° SSW 21:23:42 78° WNW 21:27:11 10° NNE
Envisat 3.5 21:18:46 10° S 21:23:47 63° WSW 21:28:50 10° NNW
Cosmos 372 Rocket 4.4 21:19:33 10° S 21:24:20 41° ESE 21:29:07 10° NNE
H-2A ROCKET BODY 3.3 21:27:37 10° SSW 21:29:53 17° SSE 21:32:05 14° SE
Cosmos 1703 Rocket 3.6 21:27:52 10° N 21:32:18 87° W 21:36:40 10° S
DNEPR-1 R/B 3.8 21:27:58 10° SSW 21:33:18 66° ESE 21:37:50 10° NE
Cosmos 1943 Rocket 2.2 21:28:00 10° S 21:33:28 56° ESE 21:38:54 10° NNE
Cosmos 1892 4.2 21:30:26 10° SSW 21:34:03 38° WNW 21:37:40 10° N
Cosmos 1269 Rocket 4.4 21:32:20 10° N 21:37:27 47° ENE 21:41:09 18° SE
Cosmos 1125 Rocket 3.4 21:34:14 10° S 21:39:26 70° ESE 21:44:39 10° NNE
Cosmos 1862 4.2 21:38:56 19° SE 21:41:02 31° E 21:44:32 10° NNE
Cosmos 1733 Rocket 4.1 21:40:35 19° SE 21:42:24 26° E 21:45:59 10° NNE
Helios 1B rocket 2.7 21:38:52 10° N 21:42:58 72° WNW 21:47:02 10° SSW
Cosmos 2084 3.8 21:43:35 10° NW 21:47:20 52° WSW 21:50:04 18° SSE
NOAA 11 4.2 21:44:20 14° SSE 21:48:59 74° ENE 21:54:29 10° N
Cosmos 2263 4.3 21:43:19 10° SSW 21:49:06 85° WNW 21:54:52 10° NNE
Cosmos 1340 3.0 21:46:02 10° N 21:49:43 48° ENE 21:51:34 25° SE
Cosmos 1869 Rocket 3.9 21:45:56 10° SSW 21:50:13 66° W 21:54:35 10° N
Lacrosse 4 Rocket 2.0 21:47:53 10° NNW 21:52:15 48° ENE 21:54:34 24° ESE
SAR-Lupe-4 3.8 21:52:14 17° S 21:54:52 69° WSW 21:58:27 10° NNW
Cosmos 2369 Rocket 3.2 21:53:29 10° SW 21:58:58 50° WNW 22:04:32 10° NNE
ATLAS CENTAUR R/B 3.6 22:02:49 10° ENE 22:02:49 10° ENE 22:02:56 10° ENE
SL-08 RB Rocket 4.1 22:00:56 26° SE 22:03:17 51° ENE 22:07:49 10° N
YAOGAN 6 4.2 22:00:59 10° SSW 22:04:19 32° W 22:07:40 10° NNW
Cosmos 158 Rocket 3.8 22:02:25 10° NNW 22:07:19 81° WSW 22:10:13 24° SSE
Cosmos 1606 3.0 22:04:08 10° NNW 22:07:52 62° W 22:10:13 21° S
Cosmos 1833 4.3 22:02:50 10° NNW 22:08:37 68° ENE 22:11:43 28° SE
H-2A R/B 2.4 22:11:05 28° SE 22:13:44 55° ENE 22:18:56 10° N
COSMOS 2455 4.5 22:09:22 10° WSW 22:14:52 36° NW 22:20:24 10° NNE
MetOp-B 4.2 22:14:45 21° S 22:18:21 75° WSW 22:23:43 10° NNW
GPS 2-04 Rocket1 3.5 22:15:37 10° WSW 22:18:45 29° SSW 22:18:45 29° SSW
ATLAS 5 CENTAUR R/B 2.4 22:13:15 10° NW 22:19:20 85° WSW 22:22:52 29° SSE
Lacrosse 5 rocket 3.6 22:17:17 10° W 22:20:12 23° NW 22:23:11 10° NNE
Cosmos 1674 Rocket 3.9 22:16:04 10° N 22:20:14 45° E 22:21:11 39° ESE
Landsat 7 4.4 22:21:55 33° ESE 22:23:19 42° ENE 22:27:48 10° N
ERS-1 Rocket 3.8 22:23:37 17° SSW 22:27:16 47° W 22:32:08 10° NNW
Cosmos 1656 Rocket 3.5 22:25:33 15° SSW 22:30:01 74° ESE 22:35:32 10° NNE
BREEZE-M DEB (TANK) 3.8 22:27:31 10° NW 22:31:07 67° NNE 22:40:24 19° ESE
ARGOS 3.3 22:28:52 26° S 22:31:57 68° WSW 22:37:18 10° NNW
H-2A R/B 3.5 22:33:43 21° ENE 22:33:54 21° ENE 22:37:02 10° NNE
Meteor 1-27 Rocket 3.8 22:28:37 10° NNW 22:34:21 74° W 22:37:24 28° S
Nadezhda 4 Rocket 3.9 22:30:13 21° S 22:34:32 86° E 22:40:43 10° N
Cosmos 1092 Rocket 4.0 22:31:56 32° SSE 22:34:42 60° E 22:40:44 10° NNE
Okean 3 4.0 22:31:26 10° N 22:35:24 39° ENE 22:35:35 39° E
IGS 5A 4.2 22:36:31 35° E 22:36:47 35° ENE 22:40:35 10° N
ISS -0.7 22:34:39 10° WNW 22:36:49 16° NNW 22:39:00 10° NNE
Terra 2.4 22:37:35 38° E 22:38:29 42° ENE 22:42:58 10° N
USA 215 3.2 22:37:58 34° SE 22:41:05 83° SW 22:47:42 10° NW
YAOGAN 11 4.5 22:40:30 37° SSW 22:42:10 62° WSW 22:46:39 10° NNW
Cosmos 1908 Rocket 3.4 22:55:36 71° SE 22:55:54 75° E 23:00:20 10° N
Cosmos 1437 3.6 22:53:44 10° N 22:56:09 48° NNW 22:56:09 48° NNW
Intercosmos 25 Rocket 4.3 22:51:06 10° NNW 22:57:56 66° W 22:59:26 42° SSW
SPOT 5 4.0 22:56:52 27° SSW 22:59:21 44° W 23:04:24 10° NNW
Milstar 3 3.6 22:55:57 10° WSW 23:05:01 37° S 23:05:32 36° S
Cosmos 2251 Rocket 3.4 23:01:37 10° NNW 23:06:53 88° ENE 23:07:41 65° SSE
Okean 2 Rocket 4.2 23:08:46 33° ENE 23:08:46 33° ENE 23:11:50 10° NNE
CENTAUR R/B 4.3 23:02:27 10° WSW 23:07:57 32° NW 23:14:08 10° NNE
Cosmos 2227 Rocket 3.5 23:03:54 10° N 23:08:42 28° NE 23:10:00 25° ENE
DMSP B5D2-2 4.2 23:03:57 10° N 23:09:09 71° WNW 23:11:05 39° SSW
SPOT 1/Viking Rocket 4.4 23:10:32 33° SW 23:12:12 44° W 23:17:11 10° NNW
Cosmos 2219 3.1 23:10:28 10° NNW 23:16:16 87° ENE 23:17:12 64° SSE
Spot 4 4.2 23:17:07 51° ENE 23:17:08 51° ENE 23:21:49 10° N
Meteor 1-14 Rocket 4.2 23:17:48 53° SSW 23:19:18 87° W 23:25:09 10° N
deb Chang Zheng 4 4.1 23:16:15 10° NNE 23:19:47 50° NE 23:19:47 50° NE
CZ-4 R/B 4.0 23:16:29 10° NNE 23:20:29 56° ENE 23:20:29 56° ENE
Cosmos 1812 3.4 23:17:33 10° N 23:20:33 51° N 23:20:33 51° N
Cosmos 1782 Rocket 3.7 23:23:54 69° NNE 23:23:54 69° NNE 23:27:48 10° N
Cosmos 2195 Rocket 4.5 23:21:49 47° SSW 23:23:49 82° W 23:30:11 10° N
SME Rocket 4.4 23:22:43 51° SSE 23:24:41 82° ENE 23:34:17 10° NNW
Lacrosse 4 Rocket 3.7 23:27:47 10° WNW 23:30:32 16° WSW 23:30:55 16° WSW
GEOS 3 Rocket 3.4 23:30:20 79° S 23:30:38 85° SW 23:35:54 10° NW
Sich 1 Rocket 4.4 23:34:14 42° W 23:34:39 43° WNW 23:38:53 10° N
SL-19 R/B 4.5 23:29:54 10° NNE 23:36:00 80° WNW 23:37:41 51° SSW
ATLAS CENTAUR R/B 2.4 23:39:00 40° NW 23:39:02 40° NW 23:42:42 10° NNE
Gbstr 26 Del rocket 4.1 23:35:44 10° NW 23:39:33 35° NNE 23:39:33 35° NNE
Cosmos 1655 Rocket 3.9 23:42:11 65° SSW 23:43:11 86° W 23:49:27 10° N
Cosmos 405 Rocket 4.1 23:39:35 10° NNW 23:41:56 36° NNW 23:41:56 36° NNW
CZ-4C R/B 4.3 23:46:58 47° NNE 23:46:58 47° NNE 23:50:02 10° N
Cosmos 1975 Rocket 3.6 23:41:33 10° NNW 23:45:23 57° NW 23:45:23 57° NW
ALOS 2 4.3 23:53:43 25° NE 23:53:43 25° NE 23:56:31 10° NNE
Meteor 1-18 Rocket 4.4 23:47:23 10° NNW 23:53:04 64° W 23:53:31 61° WSW
Cosmos 2026 Rocket 4.5 23:51:36 42° SW 23:53:18 54° W 23:59:26 10° N
H-2A R/B 4.1 23:51:42 16° WSW 23:53:25 19° W 23:57:06 10° NW
